{"data":{"norad_id":53995,"intl_designator":"2022-125AH","name":"STARLINK-5097","alt_names":[],"object_type":"PAYLOAD","status":"ACTIVE","operator":null,"country":"US","launch_date":"2022-10-05","launch_site_code":"AFWTR","launch_vehicle":null,"mission":null,"orbit_class":"UNKNOWN","rcs_meters":null,"size_class":null,"mass_kg":null,"dimensions":null,"purposes":["comms"],"wikipedia_slug":null,"has_3d_model":false,"image_url":null,"decayed_at":null,"tle_current":{"epoch":"2026-09-20T13:42:28.687104Z","epoch_age_seconds":80309,"freshness":"FRESH","line1":"1 53995U 22125AH  26263.57116536  .00000335  00000+0  21050-4 0  9998","line2":"2 53995  53.1614  51.5540 0001181  87.1184 272.9954 15.34392605218976","mean_motion":15.34392605,"eccentricity":0.0001181,"inclination_deg":53.1614,"raan_deg":51.554,"arg_perigee_deg":87.1184,"mean_anomaly_deg":272.9954,"bstar":2.105e-5,"rev_number":21897,"period_min":93.848210380289,"perigee_km":461.91731396565,"apogee_km":463.53312562196,"semimajor_km":6840.8622197938,"source":"CELESTRAK","updated_at":"2026-09-21T09:00:33.045513Z"}}}